Flag for U.S.A. Weather past 2 weeks in Tucson, Arizona, U.S.A.

Now
78 °F

Clear.


Feels Like: 77 °F
Forecast: 65 / 96 °F
Wind: 8 mph from West

Location: Davis-Monthan Air Force Base

Current Time: May 28, 2015 at 11:42:25 PM

Latest Report: May 28, 2015 at 10:58 PM


Visibility: 10 mi

Pressure: 29.82 "Hg

Humidity: 16%

Dew point: 29 °F

Location of TucsonLocation

Historic Weather in Tucson — Graph

°F

Tucson temperature yesterday

Maximum temperature yesterday: 93 °F (at 4:05 PM)
Minimum temperature yesterday: 62 °F (at 4:58 AM)
Average temperature yesterday: 78 °F

Past Weeks' High & Low Weather Summary

 TemperatureHumidityPressure
High95 °F (May 28, 2:58 PM)89% (May 16, 5:58 AM)30.01 "Hg (May 16, 5:58 AM)
Low52 °F (May 16, 2:58 AM)4% (May 27, 4:05 PM)29.67 "Hg (May 14, 4:58 PM)
Average71 °F26%29.84 "Hg
* Reported May 13 9:58 PM — May 28 9:58 PM, Tucson, Weather by CustomWeather, © 2015

Note: Actual official high and low records may vary slightly from our data, if they occured in-between our weather recording intervals... More about our weather records

Advertising

Tucson weather history for previous 24 hours

 ConditionsComfort  
Time TempWeatherWind HumidityBarometerVisibility
9:58 PM
Thu, May 28
82 °FClear.8 mph13%29.80 "Hg10 mi
8:58 PM84 °FClear.8 mph13%29.79 "Hg10 mi
7:58 PM86 °FClear.7 mph11%29.77 "Hg10 mi
6:58 PM91 °FSunny.10 mph9%29.76 "Hg10 mi
5:58 PM93 °FSunny.12 mph8%29.75 "Hg10 mi
4:58 PM95 °FSunny.10 mph7%29.75 "Hg10 mi
3:58 PM94 °FSunny.3 mph7%29.77 "Hg10 mi
2:58 PM95 °FSunny.12 mph6%29.78 "Hg10 mi
1:58 PM92 °FSunny.5 mph9%29.80 "Hg10 mi
12:58 PM91 °FSunny.6 mph9%29.83 "Hg10 mi
11:58 AM89 °FSunny.8 mph10%29.86 "Hg10 mi
10:58 AM87 °FSunny.2 mph11%29.87 "Hg10 mi
9:58 AM83 °FSunny.3 mph15%29.87 "Hg10 mi
8:58 AM81 °FSunny.No wind17%29.87 "Hg8 mi
7:58 AM76 °FSunny.2 mph18%29.88 "Hg10 mi
6:58 AM70 °FSunny.3 mph21%29.88 "Hg10 mi
5:58 AM62 °FSunny.2 mph26%29.88 "Hg10 mi
4:58 AM62 °FClear.3 mph28%29.87 "Hg10 mi
3:58 AM63 °FClear.2 mph29%29.86 "Hg10 mi
2:58 AM64 °FClear.8 mph25%29.86 "Hg10 mi
1:58 AM67 °FClear.No wind25%29.84 "Hg10 mi
12:58 AM71 °FClear.9 mph20%29.84 "Hg10 mi
11:58 PM
Wed, May 27
70 °FClear.6 mph17%29.85 "Hg10 mi
Weather by CustomWeather, © 2015

See weather overviewHow to use our weather pages